Weather History for Poteau, OK

Change the Weather History Date:

Monday, July 2, 2012

  Actual Average (KFSM) Record (KFSM)
Temperature  
Mean Temperature 80 °F 81 °F  
Max Temperature 91 °F 92 °F 105 °F (1894)
Min Temperature 69 °F 71 °F 57 °F (1924)
Cooling Degree Days 15 16  
Month to date cooling degree days 32  
Year to date cooling degree days 661  
Since 1 June cooling degree days 417  
Growing Degree Days 30 (Base 50)    
Moisture  
Dew Point 70 °F    
Average Humidity 71    
Maximum Humidity 94    
Minimum Humidity 46    
Precipitation  
Precipitation 0.05 in 0.12 in 3.28 in (2004)
Month to date precipitation 0.25  
Year to date precipitation 23.72  
Sea Level Pressure  
Sea Level Pressure 30.03 in    
Wind  
Wind Speed 4 mph (South)    
Max Wind Speed 12 mph    
Max Gust Speed 18 mph    
Visibility 8 miles    
Events Rain    
T = Trace of Precipitation, MM = Missing Value Source: NWS Daily Summary

Daily Weather History Graph

Daily Weather History Graph

Search for Another Location

Airport:

Trip Planner

Search our weather history database for the weather conditions in past years. The results will help you decide how hot, cold, wet, or windy it might be!

Date:

Astronomy

Jul. 02, 2012 Rise Set
Actual Time 6:08 AM CDT 8:36 PM CDT
Civil Twilight 5:39 AM CDT 9:05 PM CDT
Nautical Twilight 5:02 AM CDT 9:42 PM CDT
Astronomical Twilight 4:22 AM CDT 10:22 PM CDT
Moon 7:41 PM CDT (7/2) 4:55 AM CDT (7/2)
Length of Visible Light 15h 26m
Length of Day
14h 27m
Waxing Gibbous, 98% of the Moon is Illuminated
Jul 2
Waxing Gibbous
Jul 3
Full
Jul 10
Last Quarter
Jul 18
New
Jul 26
First Quarter

Hourly Weather History & Observations

Time (CDT) Temp. Heat Index Dew Point Humidity Pressure Visibility Wind Dir Wind Speed Gust Speed Precip Events Conditions
12:15 AM 78.8 °F - 66.2 °F 65% 30.00 in 10.0 mi SSW 6.9 mph - N/A   Clear
12:35 AM 78.8 °F - 68.0 °F 69% 30.00 in 10.0 mi South 4.6 mph - N/A   Clear
12:55 AM 78.8 °F - 68.0 °F 69% 30.01 in 10.0 mi Calm Calm - N/A   Clear
1:15 AM 75.2 °F - 66.2 °F 73% 30.01 in 10.0 mi South 3.5 mph - N/A   Clear
1:35 AM 75.2 °F - 66.2 °F 73% 30.01 in 10.0 mi Calm Calm - N/A   Clear
1:55 AM 75.2 °F - 68.0 °F 78% 30.02 in 10.0 mi SSW 4.6 mph - N/A   Clear
2:15 AM 75.2 °F - 68.0 °F 78% 30.02 in 10.0 mi Calm Calm - N/A   Clear
2:35 AM 75.2 °F - 68.0 °F 78% 30.02 in 10.0 mi SSW 5.8 mph - N/A   Clear
2:55 AM 75.2 °F - 68.0 °F 78% 30.02 in 10.0 mi SSW 3.5 mph - N/A   Scattered Clouds
3:15 AM 75.2 °F - 68.0 °F 78% 30.02 in 10.0 mi Calm Calm - N/A   Scattered Clouds
3:35 AM 73.4 °F - 68.0 °F 83% 30.02 in 10.0 mi Calm Calm - N/A   Scattered Clouds
3:55 AM 75.2 °F - 68.0 °F 78% 30.02 in 10.0 mi Calm Calm - N/A   Clear
4:15 AM 71.6 °F - 68.0 °F 88% 30.01 in 10.0 mi Calm Calm - N/A   Clear
4:35 AM 69.8 °F - 66.2 °F 88% 30.01 in 10.0 mi Calm Calm - N/A   Clear
4:55 AM 71.6 °F - 68.0 °F 88% 30.02 in 10.0 mi Calm Calm - N/A   Clear
5:15 AM 71.6 °F - 66.2 °F 83% 30.02 in 10.0 mi WSW 3.5 mph - N/A   Scattered Clouds
5:35 AM 73.4 °F - 66.2 °F 78% 30.03 in 10.0 mi Calm Calm - N/A   Scattered Clouds
5:55 AM 73.4 °F - 68.0 °F 83% 30.03 in 10.0 mi SSW 3.5 mph - N/A   Clear
6:15 AM 75.2 °F - 69.8 °F 83% 30.04 in 10.0 mi Calm Calm - N/A   Scattered Clouds
6:35 AM 75.2 °F - 68.0 °F 78% 30.04 in 10.0 mi Calm Calm - N/A   Scattered Clouds
6:55 AM 75.2 °F - 69.8 °F 83% 30.05 in 10.0 mi Calm Calm - N/A   Scattered Clouds
7:15 AM 77.0 °F - 69.8 °F 78% 30.06 in 10.0 mi SW 3.5 mph - N/A   Mostly Cloudy
7:35 AM 78.8 °F - 68.0 °F 69% 30.06 in 10.0 mi SW 3.5 mph - N/A   Mostly Cloudy
7:55 AM 78.8 °F - 68.0 °F 69% 30.08 in 10.0 mi SW 5.8 mph - N/A   Scattered Clouds
8:15 AM 78.8 °F - 69.8 °F 74% 30.08 in 10.0 mi SW 10.4 mph - N/A Rain Light Rain
8:35 AM 75.2 °F - 71.6 °F 89% 30.09 in 7.0 mi SW 8.1 mph - 0.01 in Rain Light Rain
8:55 AM 75.2 °F - 71.6 °F 89% 30.10 in 7.0 mi SW 6.9 mph - 0.01 in Rain Light Rain
9:15 AM 75.2 °F - 73.4 °F 94% 30.10 in 7.0 mi SW 6.9 mph - N/A Rain Light Rain
9:35 AM 75.2 °F - 73.4 °F 94% 30.10 in 7.0 mi SSW 5.8 mph - 0.01 in Rain Light Rain
9:55 AM 75.2 °F - 73.4 °F 94% 30.11 in 5.0 mi SSW 4.6 mph - 0.02 in Rain Rain
10:15 AM 75.2 °F - 73.4 °F 94% 30.11 in 4.0 mi South 3.5 mph - 0.02 in Rain Rain
10:35 AM 75.2 °F - 73.4 °F 94% 30.11 in 5.0 mi Calm Calm - 0.02 in Rain Light Rain
10:55 AM 75.2 °F - 73.4 °F 94% 30.10 in 5.0 mi Calm Calm - 0.02 in Rain Light Rain
11:15 AM 75.2 °F - 73.4 °F 94% 30.09 in 7.0 mi Calm Calm - N/A Rain Light Rain
11:35 AM 77.0 °F - 75.2 °F 94% 30.09 in 7.0 mi South 4.6 mph - N/A   Clear
11:55 AM 78.8 °F - 73.4 °F 83% 30.09 in 7.0 mi South 4.6 mph - N/A   Clear
12:15 PM 80.6 °F 86.2 °F 75.2 °F 84% 30.09 in 7.0 mi SW 4.6 mph - N/A   Scattered Clouds
12:35 PM 80.6 °F 85.4 °F 73.4 °F 79% 30.08 in 7.0 mi SSW 3.5 mph - N/A   Scattered Clouds
12:55 PM 82.4 °F 88.2 °F 73.4 °F 74% 30.08 in 7.0 mi Calm Calm - N/A   Scattered Clouds
1:15 PM 86.0 °F 93.4 °F 73.4 °F 66% 30.07 in 7.0 mi SSW 4.6 mph - N/A   Scattered Clouds
1:35 PM 87.8 °F 95.6 °F 73.4 °F 62% 30.06 in 7.0 mi SSW 9.2 mph - N/A   Clear
1:55 PM 87.8 °F 95.6 °F 73.4 °F 62% 30.06 in 7.0 mi South 5.8 mph - N/A   Scattered Clouds
2:15 PM 87.8 °F 93.8 °F 71.6 °F 58% 30.06 in 10.0 mi SSE 4.6 mph 18.4 mph N/A   Scattered Clouds
2:35 PM 89.6 °F 98.2 °F 73.4 °F 59% 30.05 in 10.0 mi South 6.9 mph - N/A   Mostly Cloudy
2:55 PM 89.6 °F 98.2 °F 73.4 °F 59% 30.04 in 7.0 mi South 6.9 mph - N/A   Scattered Clouds
3:15 PM 89.6 °F 96.2 °F 71.6 °F 55% 30.03 in 7.0 mi South 11.5 mph - N/A   Scattered Clouds
3:35 PM 89.6 °F 96.2 °F 71.6 °F 55% 30.03 in 7.0 mi SE 4.6 mph - N/A   Scattered Clouds
3:55 PM 89.6 °F 96.2 °F 71.6 °F 55% 30.01 in 7.0 mi South 6.9 mph - N/A   Scattered Clouds
4:15 PM 89.6 °F 94.7 °F 69.8 °F 52% 30.01 in 7.0 mi South 6.9 mph - N/A   Scattered Clouds
4:35 PM 89.6 °F 94.7 °F 69.8 °F 52% 30.01 in 7.0 mi South 8.1 mph - N/A   Clear
4:55 PM 91.4 °F 95.4 °F 68.0 °F 46% 30.00 in 7.0 mi SSE 6.9 mph - N/A   Scattered Clouds
5:15 PM 89.6 °F 93.4 °F 68.0 °F 49% 29.99 in 7.0 mi South 11.5 mph 18.4 mph N/A   Scattered Clouds
5:35 PM 91.4 °F 95.4 °F 68.0 °F 46% 29.98 in 7.0 mi South 9.2 mph 17.3 mph N/A   Clear
5:55 PM 91.4 °F 95.4 °F 68.0 °F 46% 29.98 in 7.0 mi South 10.4 mph - N/A   Clear
6:15 PM 89.6 °F 93.4 °F 68.0 °F 49% 29.97 in 7.0 mi SSE 8.1 mph - N/A   Clear
6:35 PM 89.6 °F 93.4 °F 68.0 °F 49% 29.97 in 7.0 mi SSE 9.2 mph - N/A   Clear
6:55 PM 89.6 °F 94.7 °F 69.8 °F 52% 29.97 in 7.0 mi SSE 5.8 mph - N/A   Clear
7:15 PM 89.6 °F 94.7 °F 69.8 °F 52% 29.97 in 7.0 mi SSE 9.2 mph 16.1 mph N/A   Clear
7:35 PM 89.6 °F 96.2 °F 71.6 °F 55% 29.98 in 7.0 mi SE 9.2 mph - N/A   Clear
7:55 PM 87.8 °F 92.6 °F 69.8 °F 55% 29.98 in 7.0 mi SSE 8.1 mph - N/A   Clear
8:15 PM 87.8 °F 92.6 °F 69.8 °F 55% 29.97 in 7.0 mi SSE 6.9 mph - N/A   Clear
8:55 PM 86.0 °F 89.4 °F 68.0 °F 55% 29.98 in 10.0 mi SSE 6.9 mph - N/A   Clear
9:15 PM 84.2 °F 87.3 °F 68.0 °F 58% 29.98 in 10.0 mi SSE 6.9 mph - N/A   Clear
9:35 PM 84.2 °F 87.3 °F 68.0 °F 58% 29.98 in 10.0 mi SSE 6.9 mph - N/A   Clear
9:55 PM 82.4 °F 86.3 °F 69.8 °F 66% 29.99 in 10.0 mi South 4.6 mph - N/A   Clear
10:15 PM 80.6 °F 83.9 °F 69.8 °F 70% 30.00 in 10.0 mi South 4.6 mph - N/A   Clear
10:35 PM 80.6 °F 83.9 °F 69.8 °F 70% 30.01 in 10.0 mi South 3.5 mph - N/A   Clear
10:55 PM 80.6 °F 83.9 °F 69.8 °F 70% 30.01 in 10.0 mi South 3.5 mph - N/A   Clear
11:35 PM 80.6 °F 83.9 °F 69.8 °F 70% 30.01 in 10.0 mi South 4.6 mph - N/A   Clear
11:55 PM 80.6 °F 83.9 °F 69.8 °F 70% 30.02 in 10.0 mi Calm Calm - N/A   Clear